Location: ????????
(48.4751°N, 37.6926°E)
Time: 13:16:08
(UTC+00:00)

Cosmos 1603 - Pass Details

Date: 20 January 2021
Orbit: 829 x 861 km, 71.0° (Epoch: 26 February)

Event Time Altitude Azimuth Distance (km) Brightness Sun altitude
Rises 15:00:57 0° 329° (NNW) 3,421 7.0 -8.6°
Reaches altitude 10° 15:03:25 10° 327° (NNW) 2,486 6.3 -9.0°
Maximum altitude 15:09:03 62° 248° (WSW) 959 4.4 -9.8°
Drops below altitude 10° 15:14:40 10° 169° (SSE) 2,487 6.2 -10.7°
Sets 15:17:09 0° 166° (SSE) 3,421 6.9 -11.1°
